Weather History for Hamilton, OH

Change the Weather History Date:

Friday, September 13, 2013

  Actual Average (KCVG) Record (KCVG)
Temperature  
Mean Temperature 58 °F 69 °F  
Max Temperature 68 °F 79 °F 98 °F (1939)
Min Temperature 50 °F 58 °F 40 °F (1953)
Degree Days  
Heating Degree Days 7 1  
Month to date heating degree days 7  
Since 1 July heating degree days 7  
Cooling Degree Days 0 5  
Month to date cooling degree days 85  
Year to date cooling degree days 1053  
Growing Degree Days 8 (Base 50)    
Moisture  
Dew Point 48 °F    
Average Humidity 67    
Maximum Humidity 93    
Minimum Humidity 43    
Precipitation  
Precipitation 0.00 in 0.10 in 2.85 in (1979)
Month to date precipitation 1.15  
Year to date precipitation 30.94  
Snow  
Snow 0.00 in 0.00 in 0.00 in ()
Month to date snowfall 0.0  
Since 1 July snowfall 0.0  
Since 1 September snowfall 0.0  
Snow Depth -    
Sea Level Pressure  
Sea Level Pressure 30.05 in    
Wind  
Wind Speed 6 mph (North)    
Max Wind Speed 14 mph    
Max Gust Speed 21 mph    
Visibility 10 miles    
Events      
T = Trace of Precipitation, MM = Missing Value Source: NWS Daily Summary

Daily Weather History Graph

Daily Weather History Graph

Search for Another Location

Airport:

Trip Planner

Search our weather history database for the weather conditions in past years. The results will help you decide how hot, cold, wet, or windy it might be!

Date:

Astronomy

Sep. 13, 2013 Rise Set
Actual Time 7:17 AM EDT 7:49 PM EDT
Civil Twilight 6:50 AM EDT 8:16 PM EDT
Nautical Twilight 6:18 AM EDT 8:48 PM EDT
Astronomical Twilight 5:46 AM EDT 9:20 PM EDT
Moon 3:37 PM EDT (9/13) 12:47 AM EDT (9/13)
Length of Visible Light 13h 25m
Length of Day
12h 31m
First Quarter, 61% of the Moon is Illuminated
Sep 13
First Quarter
Sep 19
Full
Sep 26
Last Quarter
Oct 4
New
Oct 11
First Quarter

Hourly Weather History & Observations

Time (EDT) Temp. Dew Point Humidity Pressure Visibility Wind Dir Wind Speed Gust Speed Precip Events Conditions
12:53 AM 64.9 °F 59.0 °F 81% 29.96 in 10.0 mi NNW 4.6 mph - N/A   Clear
1:53 AM 64.0 °F 57.0 °F 78% 29.98 in 10.0 mi North 6.9 mph - N/A   Clear
2:53 AM 62.1 °F 55.0 °F 78% 29.98 in 10.0 mi North 6.9 mph - N/A   Clear
3:53 AM 60.1 °F 54.0 °F 80% 29.99 in 10.0 mi NNW 4.6 mph - N/A   Clear
4:53 AM 57.9 °F 53.1 °F 84% 30.01 in 10.0 mi North 5.8 mph - N/A   Clear
5:53 AM 57.0 °F 51.1 °F 81% 30.01 in 10.0 mi North 5.8 mph - N/A   Clear
6:53 AM 53.1 °F 48.9 °F 86% 30.04 in 10.0 mi Calm Calm - N/A   Clear
7:53 AM 52.0 °F 50.0 °F 93% 30.05 in 10.0 mi West 3.5 mph - N/A   Clear
8:53 AM 57.9 °F 51.1 °F 78% 30.06 in 10.0 mi NNW 6.9 mph - N/A   Clear
9:53 AM 59.0 °F 48.0 °F 67% 30.06 in 10.0 mi NW 10.4 mph - N/A   Partly Cloudy
10:53 AM 62.1 °F 45.0 °F 53% 30.07 in 10.0 mi North 9.2 mph 18.4 mph N/A   Scattered Clouds
11:53 AM 64.0 °F 44.1 °F 48% 30.08 in 10.0 mi North 11.5 mph 18.4 mph N/A   Overcast
12:53 PM 63.0 °F 43.0 °F 48% 30.08 in 10.0 mi North 11.5 mph 18.4 mph N/A   Overcast
1:53 PM 66.0 °F 43.0 °F 43% 30.09 in 10.0 mi North 13.8 mph 20.7 mph N/A   Mostly Cloudy
2:53 PM 64.9 °F 43.0 °F 45% 30.06 in 10.0 mi NNW 12.7 mph - N/A   Overcast
3:53 PM 64.9 °F 43.0 °F 45% 30.05 in 10.0 mi North 8.1 mph - N/A   Mostly Cloudy
4:53 PM 64.9 °F 44.1 °F 47% 30.05 in 10.0 mi North 11.5 mph 19.6 mph N/A   Overcast
5:53 PM 64.9 °F 44.1 °F 47% 30.06 in 10.0 mi NNE 8.1 mph - N/A   Overcast
6:53 PM 63.0 °F 43.0 °F 48% 30.07 in 10.0 mi North 9.2 mph - N/A   Overcast
7:53 PM 57.0 °F 44.1 °F 62% 30.08 in 10.0 mi Calm Calm - N/A   Partly Cloudy
8:53 PM 52.0 °F 46.9 °F 83% 30.09 in 10.0 mi Calm Calm - N/A   Mostly Cloudy
9:53 PM 50.0 °F 45.0 °F 83% 30.10 in 10.0 mi Calm Calm - N/A   Clear
10:53 PM 54.0 °F 45.0 °F 72% 30.11 in 10.0 mi NNE 5.8 mph - N/A   Clear
11:53 PM 54.0 °F 44.1 °F 69% 30.11 in 10.0 mi NNE 5.8 mph - N/A   Clear